TimeEDT,TemperatureF,Dew PointF,Humidity,Sea Level PressureIn,VisibilityMPH,Wind Direction,Wind SpeedMPH,Gust SpeedMPH,PrecipitationIn,Events,Conditions,WindDirDegrees,DateUTC
12:53 AM,66.9,63.0,87,30.09,4.0,Calm,Calm,-,N/A,,Mostly Cloudy,0,2013-07-09 04:53:00
1:10 AM,66.9,63.0,87,30.13,6.0,Calm,Calm,-,N/A,,Mostly Cloudy,0,2013-07-09 05:10:00
1:53 AM,66.0,63.0,90,30.08,5.0,Calm,Calm,-,N/A,,Partly Cloudy,0,2013-07-09 05:53:00
2:53 AM,66.0,63.0,90,30.07,5.0,Calm,Calm,-,N/A,,Clear,0,2013-07-09 06:53:00
3:53 AM,66.0,63.0,90,30.07,4.0,Calm,Calm,-,N/A,,Mostly Cloudy,0,2013-07-09 07:53:00
4:53 AM,66.0,63.0,90,30.06,4.0,Calm,Calm,-,N/A,,Partly Cloudy,0,2013-07-09 08:53:00
5:19 AM,64.9,63.0,93,30.12,2.5,SSE,3.5,-,N/A,,Overcast,150,2013-07-09 09:19:00
5:29 AM,64.9,63.0,93,30.12,3.0,Calm,Calm,-,N/A,,Overcast,0,2013-07-09 09:29:00
5:53 AM,66.9,63.0,87,30.08,6.0,Calm,Calm,-,N/A,,Overcast,0,2013-07-09 09:53:00
6:53 AM,66.9,64.0,90,30.08,4.0,Calm,Calm,-,0.01,Rain,Light Rain,0,2013-07-09 10:53:00
7:17 AM,66.0,63.0,90,30.13,2.0,SSW,3.5,-,0.03,Rain,Rain,200,2013-07-09 11:17:00
7:44 AM,66.0,63.0,90,30.13,1.8,SSE,3.5,-,0.06,Rain,Light Rain,150,2013-07-09 11:44:00
7:53 AM,66.0,63.0,90,30.09,1.5,SSE,3.5,-,0.08,Rain,Rain,150,2013-07-09 11:53:00
8:15 AM,66.0,64.0,93,30.12,3.0,SSE,3.5,-,0.02,Rain,Light Rain,150,2013-07-09 12:15:00
8:22 AM,66.0,64.0,93,30.12,3.0,SE,3.5,-,0.02,,Overcast,140,2013-07-09 12:22:00
8:53 AM,66.9,64.0,90,30.08,5.0,SE,3.5,-,0.02,,Overcast,140,2013-07-09 12:53:00
9:20 AM,68.0,64.9,90,30.11,5.0,South,5.8,-,0.00,Rain,Light Rain,180,2013-07-09 13:20:00
9:48 AM,68.0,64.4,88,30.11,7.0,South,6.9,-,0.00,,Overcast,190,2013-07-09 13:48:00
9:53 AM,69.1,64.9,87,30.07,7.0,South,8.1,-,0.00,,Overcast,180,2013-07-09 13:53:00
10:53 AM,70.0,64.9,84,30.06,7.0,SSW,9.2,-,N/A,,Overcast,200,2013-07-09 14:53:00
11:03 AM,70.0,64.9,84,30.11,7.0,SSW,8.1,-,N/A,,Overcast,200,2013-07-09 15:03:00
11:42 AM,69.1,64.9,87,30.10,2.5,South,5.8,-,0.01,Rain,Light Rain,190,2013-07-09 15:42:00
11:50 AM,69.8,64.4,83,30.10,3.0,South,9.2,-,0.01,Rain,Light Rain,190,2013-07-09 15:50:00
11:53 AM,69.1,64.9,87,30.06,4.0,South,5.8,-,0.01,Rain,Light Rain,190,2013-07-09 15:53:00
12:07 PM,69.1,64.9,87,30.10,2.5,Variable,4.6,-,0.00,Rain,Light Rain,0,2013-07-09 16:07:00
12:21 PM,69.1,64.9,87,30.10,4.0,South,4.6,-,0.00,Rain,Light Rain,170,2013-07-09 16:21:00
12:53 PM,69.1,64.9,87,30.06,4.0,South,8.1,-,0.01,,Overcast,180,2013-07-09 16:53:00
1:26 PM,68.0,64.9,90,30.09,2.0,SSW,5.8,-,0.00,Rain,Light Rain,200,2013-07-09 17:26:00
1:46 PM,68.0,64.9,90,30.09,2.0,SSW,6.9,-,0.01,Rain,Light Rain,210,2013-07-09 17:46:00
1:53 PM,68.0,64.9,90,30.06,2.5,SW,4.6,-,0.01,,Overcast,220,2013-07-09 17:53:00
2:12 PM,68.0,66.0,93,30.09,1.8,SSW,6.9,-,0.00,Rain,Light Rain,210,2013-07-09 18:12:00
2:22 PM,68.0,66.0,93,30.08,2.0,SSW,9.2,-,0.00,,Overcast,200,2013-07-09 18:22:00
2:33 PM,69.1,66.0,90,30.08,1.8,South,5.8,-,0.00,,Overcast,190,2013-07-09 18:33:00
2:42 PM,69.1,66.9,93,30.08,2.0,SW,6.9,-,0.00,,Overcast,220,2013-07-09 18:42:00
2:53 PM,70.0,66.0,87,30.04,3.0,SW,5.8,-,0.00,,Overcast,230,2013-07-09 18:53:00
3:01 PM,70.0,66.0,87,30.08,3.0,Variable,6.9,-,N/A,,Overcast,0,2013-07-09 19:01:00
3:53 PM,71.1,66.9,87,30.03,3.0,SSW,6.9,-,N/A,,Overcast,210,2013-07-09 19:53:00
4:53 PM,73.0,66.9,81,30.01,4.0,South,4.6,-,N/A,,Haze,190,2013-07-09 20:53:00
5:11 PM,73.0,66.9,81,30.05,4.0,Variable,5.8,-,N/A,,Haze,0,2013-07-09 21:11:00
5:33 PM,75.0,68.0,79,30.03,5.0,SW,4.6,-,N/A,,Haze,220,2013-07-09 21:33:00
5:53 PM,75.0,68.0,79,29.98,5.0,SSE,4.6,-,N/A,,Haze,160,2013-07-09 21:53:00
6:01 PM,73.9,68.0,82,30.02,5.0,South,6.9,-,N/A,,Haze,190,2013-07-09 22:01:00
6:33 PM,75.0,68.0,79,30.02,5.0,South,6.9,-,N/A,,Haze,180,2013-07-09 22:33:00
6:53 PM,75.0,68.0,79,29.97,5.0,South,5.8,-,N/A,,Haze,190,2013-07-09 22:53:00
7:25 PM,75.0,68.0,79,30.03,5.0,South,3.5,-,N/A,,Haze,180,2013-07-09 23:25:00
7:53 PM,73.9,68.0,82,29.98,4.0,South,4.6,-,N/A,,Haze,190,2013-07-09 23:53:00
8:53 PM,73.0,68.0,84,29.98,4.0,Calm,Calm,-,N/A,,Haze,0,2013-07-10 00:53:00
9:50 PM,73.4,68.0,83,30.04,5.0,South,3.5,-,N/A,,Haze,180,2013-07-10 01:50:00
9:53 PM,73.0,68.0,84,29.99,5.0,South,4.6,-,N/A,,Haze,180,2013-07-10 01:53:00
10:09 PM,72.0,68.0,87,30.04,5.0,South,5.8,-,N/A,,Scattered Clouds,180,2013-07-10 02:09:00
10:53 PM,72.0,68.0,87,29.98,4.0,Variable,3.5,-,N/A,,Partly Cloudy,0,2013-07-10 02:53:00
11:00 PM,72.0,68.0,87,30.02,4.0,South,4.6,-,N/A,,Scattered Clouds,190,2013-07-10 03:00:00
11:20 PM,72.0,68.0,87,30.02,4.0,South,5.8,-,N/A,,Mostly Cloudy,190,2013-07-10 03:20:00
11:53 PM,72.0,69.1,91,29.97,4.0,SSW,5.8,-,N/A,,Overcast,200,2013-07-10 03:53:00